STARLINK-34240, 64265

Orbit data source: Space-Track

STARLINK-34240, 64265 is a payload satellite owned by SpaceX/Seattle (US) in LEO that was launched on Wed, 04 Jun 2025 UTC via an FALCON 9 launch vehicle from the Air Force Western Test Range (AFWTR). Payload-class satellites include a variety of spacecraft equipped with specific instruments for various scientific and technological missions. These include communications satellites like Starlink; space stations such as the ISS; scientific satellites like the Hubble; Earth observation satellites from companies like Planet Labs, Umbra, and HawkEye 360; GPS; miniature CubeSats for education and research; and military/defense satellites.

Loading next visibility...
Identifier
64265, 2025-120K
Orbit
LEO
Country
Flag of USUS
Related business
Manufacturer
SpaceX/Seattle
Mission
Operational Commercial Communications
Bus & Motor
STARLINK V2MO, Unknown motor
Mass
575 kg wet, ~530 kg dry
Launch date (UTC)
2025-06-04 (1 year ago)
Launch vehicle
FALCON 9
Launch site
Air Force Western Test Range (AFWTR)
Object type
Payload
Rocket body
Debris
Shape & HBR
Box + 2 Pan, 17.7 m
Radar Cross Section
36.964 m², Large (>1 m²)

Expand to show TLE details & history
Last TLE update: 2 days ago

TLE from 2 days ago
0 STARLINK-34240
1 64265U 25120K   26169.81394677  .00222294  00000-0  72190-2 0  9994
2 64265  53.1619   7.3416 0000775  74.8931 285.2156 15.30542294 59392
Epoch: 2026-06-18T19:32Z
TLE epoch observation values (Epoch: 2026-06-18T19:32:05.000Z)
Latitude
-0.00002°
Longitude
167.26887°
Altitude
474.954 km
Speed
7.63 km/s
True Right ascension
00h 29m 21s
True Declination
0° 00' 00"
Sunlit
Object was in daylight at epoch
Visualization orbit readout
Latitude
Unknown
Longitude
Unknown
Altitude
Unknown
Speed
Unknown
Apparent Right ascension
Unknown
Apparent Declination
Unknown
Sunlit
N/A
Visualization observer readout
Local Sidereal Time
08:32:53
Azimuth
Unknown
Elevation
Unknown
Doppler factor
Unknown
Orbital elements
Apogee altitude
474.98 km
Perigee altitude
473.918 km
Semi-major axis
6,852.586 km
Eccentricity
0.00008
Inclination
53.1619°
RAAN
7.3416°
Arg. of periapsis
74.8931°
True anomaly
285.20703°
Mean anomaly
285.2156°
Eccentric anomaly
285.21132°
Mean motion
3.82614 °/min
Orbital period
94.09 mins
BSTAR
0.007219
Loading maneuver chart data...
Computing Atmospheric mass density...
Loading historical data...
Loading historical data...
Loading historical data...
Loading historical data...
Loading historical data...
Loading historical data...
Loading historical data...

Documentation

Showing up to 5 results
|